TimeEDT,TemperatureF,Dew PointF,Humidity,Sea Level PressureIn,VisibilityMPH,Wind Direction,Wind SpeedMPH,Gust SpeedMPH,PrecipitationIn,Events,Conditions,WindDirDegrees,DateUTC
12:10 AM,78.8,75.2,89,30.02,6.0,NNE,8.1,-,0.05,Rain,Rain,30,2012-10-10 04:10:00
12:53 AM,80.1,77.0,90,30.01,10.0,NE,3.5,-,0.05,,Partly Cloudy,40,2012-10-10 04:53:00
1:53 AM,81.0,78.1,91,30.00,10.0,East,4.6,-,N/A,,Clear,80,2012-10-10 05:53:00
2:53 AM,79.0,75.9,90,29.99,10.0,ENE,3.5,-,N/A,,Clear,70,2012-10-10 06:53:00
3:53 AM,77.0,75.9,96,29.98,10.0,Calm,Calm,-,N/A,,Clear,0,2012-10-10 07:53:00
4:53 AM,78.1,77.0,96,29.98,10.0,Calm,Calm,-,N/A,,Clear,0,2012-10-10 08:53:00
5:53 AM,80.1,78.1,94,29.99,10.0,ENE,4.6,-,N/A,,Clear,60,2012-10-10 09:53:00
6:53 AM,80.1,77.0,90,30.01,10.0,ENE,3.5,-,N/A,,Clear,70,2012-10-10 10:53:00
7:18 AM,80.6,78.8,94,30.01,10.0,NE,8.1,-,N/A,,Mostly Cloudy,40,2012-10-10 11:18:00
7:28 AM,80.6,78.8,94,30.01,10.0,NE,8.1,-,N/A,,Mostly Cloudy,50,2012-10-10 11:28:00
7:53 AM,81.0,78.1,91,30.02,10.0,ENE,6.9,-,N/A,,Partly Cloudy,60,2012-10-10 11:53:00
8:53 AM,82.9,78.1,85,30.04,10.0,NNE,9.2,-,N/A,,Partly Cloudy,30,2012-10-10 12:53:00
9:53 AM,84.9,79.0,82,30.04,10.0,NE,9.2,-,N/A,,Partly Cloudy,50,2012-10-10 13:53:00
10:53 AM,84.9,77.0,77,30.05,10.0,ENE,9.2,-,N/A,,Clear,60,2012-10-10 14:53:00
11:53 AM,86.0,77.0,74,30.06,10.0,NE,9.2,-,N/A,,Clear,50,2012-10-10 15:53:00
12:53 PM,88.0,75.0,65,30.05,10.0,ENE,10.4,-,N/A,,Clear,60,2012-10-10 16:53:00
1:53 PM,88.0,75.0,65,30.03,10.0,NE,8.1,-,N/A,,Clear,50,2012-10-10 17:53:00
2:53 PM,88.0,75.9,67,30.00,10.0,East,6.9,-,N/A,,Partly Cloudy,80,2012-10-10 18:53:00
3:53 PM,88.0,73.9,63,29.98,10.0,NE,6.9,-,N/A,,Clear,50,2012-10-10 19:53:00
4:53 PM,82.9,73.9,74,29.98,10.0,NNE,10.4,-,N/A,,Mostly Cloudy,30,2012-10-10 20:53:00
5:02 PM,82.4,73.4,74,29.98,10.0,NNE,10.4,21.9,N/A,,Overcast,20,2012-10-10 21:02:00
5:53 PM,82.9,73.0,72,29.99,10.0,ENE,8.1,-,0.00,,Mostly Cloudy,70,2012-10-10 21:53:00
6:53 PM,82.9,75.9,79,30.01,10.0,East,6.9,-,N/A,,Scattered Clouds,80,2012-10-10 22:53:00
7:53 PM,82.9,73.0,72,30.01,10.0,East,4.6,-,N/A,,Clear,80,2012-10-10 23:53:00
8:53 PM,82.9,75.9,79,30.01,10.0,East,5.8,-,N/A,,Clear,80,2012-10-11 00:53:00
9:53 PM,84.0,75.9,76,30.04,10.0,East,8.1,-,N/A,,Partly Cloudy,80,2012-10-11 01:53:00
10:09 PM,84.2,75.2,74,30.04,10.0,NE,13.8,-,N/A,,Mostly Cloudy,50,2012-10-11 02:09:00
10:23 PM,84.2,77.0,79,30.04,10.0,ENE,12.7,-,N/A,,Scattered Clouds,60,2012-10-11 02:23:00
10:53 PM,82.9,75.9,79,30.05,10.0,ENE,9.2,-,N/A,,Partly Cloudy,60,2012-10-11 02:53:00
11:53 PM,82.9,75.0,77,30.04,10.0,ENE,8.1,-,N/A,,Partly Cloudy,70,2012-10-11 03:53:00